Time,TemperatureF,DewpointF,PressureIn,WindDirection,WindDirectionDegrees,WindSpeedMPH,WindSpeedGustMPH,Humidity,HourlyPrecipIn,Conditions,Clouds,dailyrainin,SoftwareType,DateUTC
2013-07-03 00:10:00,63.8,58.0,29.99,SE,141,0.0,0.0,81,0.00,,,0.00,weatherlink.com 1.10,2013-07-03 05:10:00,
2013-07-03 00:25:00,63.2,58.0,29.99,SE,141,0.0,0.0,82,0.00,,,0.00,weatherlink.com 1.10,2013-07-03 05:25:00,
2013-07-03 00:40:00,62.7,58.0,29.98,SE,141,0.0,0.0,84,0.00,,,0.00,weatherlink.com 1.10,2013-07-03 05:40:00,
2013-07-03 01:25:00,62.3,58.0,29.98,SE,141,0.0,0.0,85,0.00,,,0.00,weatherlink.com 1.10,2013-07-03 06:25:00,
2013-07-03 01:56:00,62.8,57.0,29.97,SE,140,0.0,0.0,81,0.00,,,0.00,weatherlink.com 1.10,2013-07-03 06:56:00,
2013-07-03 02:11:00,62.2,57.0,29.97,SE,139,0.0,0.0,83,0.00,,,0.00,weatherlink.com 1.10,2013-07-03 07:11:00,
2013-07-03 02:26:00,61.7,57.0,29.97,SE,140,0.0,0.0,84,0.00,,,0.00,weatherlink.com 1.10,2013-07-03 07:26:00,
2013-07-03 02:41:00,61.3,57.0,29.97,SE,141,0.0,0.0,86,0.00,,,0.00,weatherlink.com 1.10,2013-07-03 07:41:00,
2013-07-03 02:56:00,60.7,57.0,29.97,SE,141,0.0,0.0,87,0.00,,,0.00,weatherlink.com 1.10,2013-07-03 07:56:00,
2013-07-03 03:11:00,60.2,57.0,29.96,SE,141,0.0,0.0,88,0.00,,,0.00,weatherlink.com 1.10,2013-07-03 08:11:00,
2013-07-03 03:26:00,60.0,57.0,29.96,SE,141,0.0,0.0,89,0.00,,,0.00,weatherlink.com 1.10,2013-07-03 08:26:00,
2013-07-03 03:41:00,60.1,57.0,29.96,SE,141,0.0,0.0,89,0.00,,,0.00,weatherlink.com 1.10,2013-07-03 08:41:00,
2013-07-03 03:56:00,60.2,57.0,29.97,SE,141,0.0,0.0,88,0.00,,,0.00,weatherlink.com 1.10,2013-07-03 08:56:00,
2013-07-03 04:11:00,61.3,57.0,29.96,SE,136,0.0,0.0,85,0.00,,,0.00,weatherlink.com 1.10,2013-07-03 09:11:00,
2013-07-03 04:26:00,61.9,56.0,29.96,SE,124,0.0,0.0,82,0.00,,,0.00,weatherlink.com 1.10,2013-07-03 09:26:00,
2013-07-03 04:56:00,62.7,56.0,29.96,ESE,120,0.0,0.0,79,0.00,,,0.00,weatherlink.com 1.10,2013-07-03 09:56:00,
2013-07-03 05:11:00,62.5,56.0,29.97,SE,127,0.0,1.0,79,0.00,,,0.00,weatherlink.com 1.10,2013-07-03 10:11:00,
2013-07-03 05:26:00,62.0,56.0,29.97,SE,127,0.0,0.0,81,0.00,,,0.00,weatherlink.com 1.10,2013-07-03 10:26:00,
2013-07-03 05:41:00,60.8,56.0,29.97,SE,127,0.0,0.0,83,0.00,,,0.00,weatherlink.com 1.10,2013-07-03 10:41:00,
2013-07-03 05:56:00,60.0,56.0,29.97,SE,127,0.0,0.0,86,0.00,,,0.00,weatherlink.com 1.10,2013-07-03 10:56:00,
2013-07-03 06:26:00,58.9,55.0,29.98,SE,127,0.0,0.0,88,0.00,,,0.00,weatherlink.com 1.10,2013-07-03 11:26:00,
2013-07-03 06:56:00,60.1,57.0,29.98,SE,127,0.0,0.0,88,0.00,,,0.00,weatherlink.com 1.10,2013-07-03 11:56:00,
2013-07-03 07:26:00,62.5,57.0,29.98,SE,141,0.0,1.0,83,0.00,,,0.00,weatherlink.com 1.10,2013-07-03 12:26:00,
2013-07-03 07:41:00,64.7,58.0,29.98,SE,142,0.0,1.0,78,0.00,,,0.00,weatherlink.com 1.10,2013-07-03 12:41:00,
2013-07-03 07:56:00,66.0,58.0,29.99,SE,124,0.0,1.0,76,0.00,,,0.00,weatherlink.com 1.10,2013-07-03 12:56:00,
2013-07-03 08:26:00,68.6,59.0,30.00,ESE,117,0.0,0.0,72,0.00,,,0.00,weatherlink.com 1.10,2013-07-03 13:26:00,
2013-07-03 08:42:00,70.2,58.0,30.00,SE,124,1.0,1.0,65,0.00,,,0.00,weatherlink.com 1.10,2013-07-03 13:42:00,
2013-07-03 08:57:00,73.0,57.0,30.00,SE,141,0.0,0.0,58,0.00,,,0.00,weatherlink.com 1.10,2013-07-03 13:57:00,
2013-07-03 09:12:00,76.3,57.0,30.00,SE,127,0.0,2.0,52,0.00,,,0.00,weatherlink.com 1.10,2013-07-03 14:12:00,
2013-07-03 09:27:00,78.2,58.0,30.00,SSE,158,0.0,1.0,50,0.00,,,0.00,weatherlink.com 1.10,2013-07-03 14:27:00,
2013-07-03 09:42:00,78.6,57.0,30.00,NNW,341,0.0,2.0,48,0.00,,,0.00,weatherlink.com 1.10,2013-07-03 14:42:00,
2013-07-03 09:57:00,79.9,58.0,30.00,SE,124,0.0,3.0,47,0.00,,,0.00,weatherlink.com 1.10,2013-07-03 14:57:00,
2013-07-03 10:12:00,80.4,58.0,29.99,ENE,75,0.0,2.0,47,0.00,,,0.00,weatherlink.com 1.10,2013-07-03 15:12:00,
2013-07-03 10:44:00,82.2,57.0,29.99,NW,309,3.0,4.0,42,0.00,,,0.00,weatherlink.com 1.10,2013-07-03 15:44:00,
2013-07-03 10:57:00,82.0,57.0,29.99,NNW,342,0.0,4.0,43,0.00,,,0.00,weatherlink.com 1.10,2013-07-03 15:57:00,
2013-07-03 11:12:00,82.3,58.0,29.99,SSE,155,0.0,5.0,44,0.00,,,0.00,weatherlink.com 1.10,2013-07-03 16:12:00,
2013-07-03 11:27:00,82.9,59.0,29.98,ENE,65,0.0,5.0,45,0.00,,,0.00,weatherlink.com 1.10,2013-07-03 16:27:00,
2013-07-03 11:57:00,84.3,60.0,29.98,West,277,0.0,2.0,44,0.00,,,0.00,weatherlink.com 1.10,2013-07-03 16:57:00,
2013-07-03 12:14:00,85.1,58.0,29.98,East,97,0.0,3.0,40,0.00,,,0.00,weatherlink.com 1.10,2013-07-03 17:14:00,
2013-07-03 12:43:00,84.1,57.0,29.97,NNW,333,0.0,4.0,39,0.00,,,0.00,weatherlink.com 1.10,2013-07-03 17:43:00,
2013-07-03 12:58:00,82.9,56.0,29.97,NW,326,0.0,5.0,40,0.00,,,0.00,weatherlink.com 1.10,2013-07-03 17:58:00,
2013-07-03 13:13:00,84.8,59.0,29.96,NW,316,0.0,4.0,41,0.00,,,0.00,weatherlink.com 1.10,2013-07-03 18:13:00,
2013-07-03 13:28:00,86.3,58.0,29.96,WNW,299,0.0,3.0,38,0.00,,,0.00,weatherlink.com 1.10,2013-07-03 18:28:00,
2013-07-03 13:43:00,86.3,56.0,29.95,SSE,150,1.0,1.0,35,0.00,,,0.00,weatherlink.com 1.10,2013-07-03 18:43:00,
2013-07-03 13:58:00,87.2,54.0,29.94,ESE,122,0.0,3.0,32,0.00,,,0.00,weatherlink.com 1.10,2013-07-03 18:58:00,
2013-07-03 14:28:00,85.7,54.0,29.93,North,359,0.0,3.0,34,0.00,,,0.00,weatherlink.com 1.10,2013-07-03 19:28:00,
2013-07-03 14:43:00,85.6,54.0,29.93,WNW,301,0.0,5.0,34,0.00,,,0.00,weatherlink.com 1.10,2013-07-03 19:43:00,
2013-07-03 14:59:00,85.9,55.0,29.92,SSE,151,3.0,4.0,35,0.00,,,0.00,weatherlink.com 1.10,2013-07-03 19:59:00,
2013-07-03 15:13:00,85.4,54.0,29.92,SSE,158,0.0,1.0,34,0.00,,,0.00,weatherlink.com 1.10,2013-07-03 20:13:00,
2013-07-03 15:28:00,87.4,56.0,29.92,West,262,0.0,5.0,34,0.00,,,0.00,weatherlink.com 1.10,2013-07-03 20:28:00,
2013-07-03 15:43:00,88.0,55.0,29.92,SW,228,1.0,3.0,32,0.00,,,0.00,weatherlink.com 1.10,2013-07-03 20:43:00,
2013-07-03 15:58:00,87.6,55.0,29.91,West,263,0.0,1.0,33,0.00,,,0.00,weatherlink.com 1.10,2013-07-03 20:58:00,
2013-07-03 16:28:00,84.9,53.0,29.91,SSW,205,0.0,2.0,33,0.00,,,0.00,weatherlink.com 1.10,2013-07-03 21:28:00,
2013-07-03 16:43:00,83.2,55.0,29.90,SW,233,0.0,0.0,38,0.00,,,0.00,weatherlink.com 1.10,2013-07-03 21:43:00,
2013-07-03 16:58:00,82.8,54.0,29.90,WNW,291,0.0,1.0,37,0.00,,,0.00,weatherlink.com 1.10,2013-07-03 21:58:00,
2013-07-03 17:13:00,81.3,58.0,29.90,NW,316,0.0,3.0,45,0.00,,,0.00,weatherlink.com 1.10,2013-07-03 22:13:00,
2013-07-03 17:27:00,77.8,59.0,29.92,NW,325,1.0,9.0,52,0.00,,,0.00,weatherlink.com 1.10,2013-07-03 22:27:00,
2013-07-03 17:58:00,65.8,61.0,29.97,SW,217,0.0,3.0,84,0.57,,,0.57,weatherlink.com 1.10,2013-07-03 22:58:00,
2013-07-03 18:13:00,64.2,61.0,29.95,East,80,0.0,1.0,89,0.68,,,0.68,weatherlink.com 1.10,2013-07-03 23:13:00,
2013-07-03 18:43:00,63.8,62.0,29.97,SSW,210,0.0,1.0,92,0.46,,,0.75,weatherlink.com 1.10,2013-07-03 23:43:00,
2013-07-03 19:13:00,63.7,61.0,29.98,SW,217,0.0,1.0,92,0.08,,,0.76,weatherlink.com 1.10,2013-07-04 00:13:00,
2013-07-03 19:28:00,63.7,62.0,29.99,SW,217,0.0,0.0,94,0.03,,,0.77,weatherlink.com 1.10,2013-07-04 00:28:00,
2013-07-03 19:58:00,63.3,61.0,29.97,WSW,255,0.0,1.0,93,0.09,,,0.84,weatherlink.com 1.10,2013-07-04 00:58:00,
2013-07-03 20:13:00,63.0,61.0,29.98,NW,307,0.0,0.0,92,0.11,,,0.87,weatherlink.com 1.10,2013-07-04 01:13:00,
2013-07-03 20:28:00,62.8,59.0,29.97,South,172,0.0,2.0,87,0.15,,,0.92,weatherlink.com 1.10,2013-07-04 01:28:00,
2013-07-03 20:43:00,62.2,60.0,29.95,South,172,0.0,0.0,92,0.13,,,0.94,weatherlink.com 1.10,2013-07-04 01:43:00,
2013-07-03 20:58:00,61.9,60.0,29.94,South,172,0.0,0.0,93,0.10,,,0.94,weatherlink.com 1.10,2013-07-04 01:58:00,
2013-07-03 21:13:00,61.9,60.0,29.93,WNW,284,0.0,1.0,94,0.07,,,0.94,weatherlink.com 1.10,2013-07-04 02:13:00,
2013-07-03 21:29:00,61.5,60.0,29.92,West,281,0.0,0.0,94,0.02,,,0.94,weatherlink.com 1.10,2013-07-04 02:29:00,
2013-07-03 21:59:00,61.5,60.0,29.93,SW,225,0.0,0.0,94,0.00,,,0.94,weatherlink.com 1.10,2013-07-04 02:59:00,
2013-07-03 22:14:00,61.7,60.0,29.94,SW,225,0.0,0.0,94,0.00,,,0.94,weatherlink.com 1.10,2013-07-04 03:14:00,
2013-07-03 22:29:00,61.4,60.0,29.94,SW,218,0.0,2.0,94,0.00,,,0.94,weatherlink.com 1.10,2013-07-04 03:29:00,
2013-07-03 22:44:00,61.4,59.0,29.94,SW,226,0.0,1.0,93,0.00,,,0.94,weatherlink.com 1.10,2013-07-04 03:44:00,
2013-07-03 22:59:00,60.8,59.0,29.94,SW,235,0.0,0.0,93,0.00,,,0.94,weatherlink.com 1.10,2013-07-04 03:59:00,
2013-07-03 23:14:00,60.7,59.0,29.95,SW,231,0.0,1.0,94,0.00,,,0.94,weatherlink.com 1.10,2013-07-04 04:14:00,
2013-07-03 23:29:00,60.7,59.0,29.95,SW,236,0.0,0.0,93,0.00,,,0.94,weatherlink.com 1.10,2013-07-04 04:29:00,
2013-07-03 23:44:00,60.6,59.0,29.95,SW,236,0.0,1.0,93,0.00,,,0.94,weatherlink.com 1.10,2013-07-04 04:44:00,
2013-07-03 23:59:00,60.3,58.0,29.95,WSW,238,0.0,1.0,92,0.00,,,0.94,weatherlink.com 1.10,2013-07-04 04:59:00,